Wind_Speed
11 9 8 6 5 4 4 3 4 4 4 5 4 4 5 5 5 5 4 3 2 2 2 3 3 3 3 4 5 6 6 6 6 6 6 6 6 6 6 6 6 6 6 6 6 5 5 5 4
13 11 9 7 6 5 5 5 5 5 5 5 4 5 5 5 5 4 4 3 3 2 3 3 3 3 4 5 6 7 7 7 7 7 7 7 7 7 7 7 7 7 7 7 6 6 5 5 5
13 12 10 9 8 6 6 5 5 5 5 5 5 4 4 4 4 4 3 3 3 3 3 3 3 4 5 6 6 7 7 7 7 7 7 8 8 8 9 9 9 8 8 7 7 7 6 5 5
14 13 12 10 9 9 7 6 6 6 5 5 4 4 5 4 4 3 3 3 3 4 4 3 3 4 5 6 7 8 8 8 8 8 8 9 9 9 9 9 9 9 9 8 8 8 7 6 6
16 14 13 11 11 10 9 7 7 7 6 5 3 3 4 4 3 3 2 3 3 3 3 3 4 5 6 6 7 7 8 9 9 9 9 9 9 9 10 10 10 9 9 9 8 8 8 7 7
17 16 15 13 12 12 11 9 7 7 6 5 4 4 3 4 3 3 3 3 2 3 2 3 4 4 5 6 7 8 9 9 9 9 9 9 9 10 10 10 9 9 10 10 9 9 9 8 8
18 17 16 14 13 13 12 10 9 8 7 6 5 5 4 4 4 3 3 3 2 2 2 3 4 5 6 7 7 8 9 10 10 10 10 10 10 10 10 10 10 10 10 10 10 9 9 9 8
19 18 16 16 14 13 12 11 10 9 7 7 6 5 4 4 3 3 2 2 3 3 3 4 4 5 6 7 8 9 9 10 10 10 10 10 10 10 10 10 11 11 11 11 10 10 9 9 9
20 19 17 16 16 14 13 11 11 10 8 7 7 5 4 4 4 3 2 2 2 3 3 4 4 5 6 7 8 9 10 10 10 10 10 10 10 10 10 11 11 12 11 11 10 9 9 9 9
21 20 19 18 16 16 14 12 11 11 10 8 7 6 5 4 4 3 2 2 2 3 3 3 4 5 6 7 8 9 9 9 10 10 10 10 10 10 11 11 12 11 11 10 10 9 9 9 9
22 21 20 18 17 16 15 14 12 12 11 10 8 6 5 5 4 4 3 2 2 2 3 4 4 5 7 8 9 9 9 9 9 9 10 10 11 11 11 11 11 11 10 10 10 9 9 9 10
22 22 21 19 18 17 16 15 13 12 12 11 9 7 5 5 4 4 2 2 2 2 3 4 5 6 7 7 8 8 9 9 9 9 10 10 11 11 11 11 11 11 10 10 9 9 9 9 10
23 23 22 20 19 18 17 15 14 13 13 12 10 8 6 5 4 3 2 2 2 3 4 4 5 6 6 6 7 8 8 9 9 10 10 11 12 11 11 11 11 10 10 10 9 9 9 9 9
24 24 23 21 20 18 17 16 15 13 12 12 11 9 7 6 5 4 3 3 3 3 3 4 5 5 5 6 7 8 8 9 10 10 11 11 11 11 10 10 10 10 10 10 9 9 9 9 9
24 25 24 23 21 19 18 17 15 14 13 12 11 9 8 7 6 5 4 3 3 3 3 4 4 4 5 6 6 7 8 9 10 10 11 11 10 10 10 10 10 10 9 9 8 7 7 7 8
25 25 25 25 23 21 19 17 16 15 14 13 11 11 10 8 6 5 4 3 3 3 3 3 3 3 4 5 6 7 8 9 10 10 11 11 10 10 10 10 11 10 10 9 8 8 7 6 6
25 26 26 25 24 21 20 18 18 16 15 14 12 12 11 9 7 6 5 3 3 3 1 1 2 3 4 4 5 7 8 9 10 10 11 11 11 11 11 11 11 10 10 10 9 8 7 6 5
25 26 26 25 24 22 21 19 18 17 16 14 13 12 11 10 8 7 5 4 3 2 1 0 1 2 3 4 5 6 7 9 9 10 11 11 12 12 12 12 12 11 11 10 9 9 7 6 5
25 25 25 25 24 22 22 20 18 17 16 15 14 13 11 10 9 8 6 4 3 2 2 1 1 1 2 3 5 6 7 8 10 10 11 12 12 13 13 13 13 12 11 11 10 10 9 7 6
25 25 25 24 24 23 22 21 19 17 17 15 14 13 12 10 9 8 7 6 4 3 2 2 2 2 3 4 5 6 7 8 10 11 11 12 12 13 14 14 13 13 12 12 12 11 10 9 7
25 25 25 24 23 22 22 21 20 18 17 15 15 14 12 12 11 10 8 7 5 4 4 3 3 3 4 4 5 6 7 8 9 11 12 13 13 14 14 15 15 15 14 14 13 12 11 10 9
24 25 24 23 23 23 22 21 21 20 18 16 15 15 14 13 12 10 8 7 6 6 5 4 4 4 4 5 5 6 7 8 9 11 12 13 13 14 15 15 16 16 16 16 15 14 13 12 11
22 23 23 23 22 23 23 22 21 20 19 17 16 15 14 14 13 11 10 9 8 7 6 5 5 4 4 4 5 6 7 8 9 10 11 12 14 15 15 16 16 17 17 17 17 16 15 13 13
19 20 21 22 22 23 24 23 21 20 18 17 17 16 15 14 13 12 11 10 9 8 7 6 5 5 4 4 4 5 6 7 8 10 11 12 13 14 15 16 16 16 17 17 17 17 16 15 14
19 19 19 20 22 22 23 23 21 19 18 18 17 16 16 14 14 12 12 11 10 9 8 8 7 5 4 4 4 4 6 6 7 9 10 11 12 13 14 15 15 15 16 16 17 17 17 16 15
19 18 18 18 20 20 21 22 20 18 17 17 16 15 15 14 14 13 12 12 11 10 10 8 7 6 5 3 3 4 4 5 6 7 9 10 11 13 13 14 14 14 15 15 15 16 15 15 15
18 18 18 17 17 17 19 19 18 17 16 15 15 14 14 14 14 14 13 12 12 11 11 9 8 7 5 4 3 3 3 4 5 6 7 9 10 11 12 12 12 13 13 13 14 14 15 14 14
15 17 16 16 17 17 17 17 16 15 15 14 14 14 14 14 14 14 14 13 13 12 11 10 9 8 6 5 3 2 2 2 3 4 5 7 8 9 10 11 11 11 12 12 13 13 14 14 13
14 15 15 14 15 16 15 15 15 14 14 14 14 14 14 14 15 15 14 14 13 13 12 11 10 9 7 6 4 3 2 1 2 3 4 5 6 7 8 9 10 11 11 11 12 12 13 13 13
14 13 15 15 15 14 15 15 15 15 14 14 14 15 15 15 15 15 14 14 14 14 13 12 11 9 8 7 5 4 3 1 1 2 3 3 5 6 7 8 9 10 10 11 11 12 12 13 13
Wind_Direction
224 223 223 219 218 222 217 210 201 203 199 202 208 206 204 208 202 201 203 216 229 259 296 307 301 302 302 312 312 312 311 309 306 308 311 311 310 309 308 306 309 311 315 317 314 311 302 288 277
224 224 224 224 226 228 226 225 210 202 205 207 202 201 206 206 201 205 216 226 240 271 290 298 302 309 306 310 310 308 309 311 314 315 319 317 315 312 311 309 309 310 310 312 309 305 298 286 276
225 223 224 226 227 226 227 222 208 200 196 197 201 200 204 208 206 214 224 242 254 280 292 295 302 305 305 309 314 316 321 323 322 320 319 317 318 317 315 312 311 309 308 309 306 301 296 285 273
224 223 225 227 225 225 220 211 203 200 200 196 200 205 209 210 215 220 227 251 265 281 288 292 299 307 311 315 316 318 323 323 321 319 316 314 312 312 312 312 311 311 310 306 303 298 292 284 272
224 224 226 227 227 226 219 214 211 208 208 204 204 208 207 205 211 229 239 255 268 279 287 297 303 310 313 312 314 320 324 325 324 323 319 316 313 311 311 312 312 312 311 307 301 295 290 283 272
224 223 225 225 226 225 222 223 218 211 211 207 214 217 218 219 231 242 243 252 274 284 291 296 300 305 311 314 319 323 324 326 325 324 324 320 316 314 314 314 313 312 310 307 301 293 288 282 274
224 223 223 223 224 226 224 221 216 213 214 213 219 221 229 239 248 255 256 258 279 288 292 293 295 302 309 316 321 324 325 325 325 326 325 322 319 319 319 317 313 312 310 306 301 295 290 283 277
223 222 221 221 220 221 219 216 215 213 214 216 220 232 237 240 249 257 267 276 280 282 287 291 295 301 309 318 324 326 327 326 326 326 325 323 322 322 322 320 316 313 309 305 302 296 290 285 278
220 221 221 220 217 217 217 214 214 215 217 220 226 235 236 241 251 253 262 284 291 292 297 299 299 303 312 321 327 329 328 327 326 325 326 324 323 323 322 320 317 313 308 305 302 297 290 284 277
221 221 222 222 219 218 216 217 217 216 217 221 226 234 239 241 243 239 244 271 290 298 308 316 316 314 320 326 331 332 330 328 329 331 331 330 328 325 322 321 318 314 309 305 302 297 289 283 278
220 220 222 222 221 218 216 217 219 217 219 222 228 233 238 237 233 229 244 267 286 299 310 321 325 326 327 329 332 335 335 335 335 336 337 336 332 327 324 322 320 317 312 308 305 299 291 285 279
219 220 220 219 218 216 215 214 216 218 221 226 234 237 237 225 217 211 242 276 290 307 318 328 332 330 330 332 335 339 340 340 342 341 339 337 334 331 328 326 327 325 319 314 310 304 297 290 283
218 218 217 216 216 215 214 212 212 216 221 225 228 227 223 210 209 214 234 263 289 306 318 330 333 334 334 336 341 346 348 348 348 345 341 338 336 335 335 335 334 332 327 320 313 305 300 295 288
217 216 215 214 214 212 212 212 212 215 217 219 218 215 212 206 209 214 230 252 282 305 322 333 338 343 341 343 350 353 353 353 350 347 344 342 340 341 342 344 343 339 333 326 319 311 303 299 294
215 213 212 212 211 209 208 210 212 213 213 216 216 210 206 207 212 216 229 251 280 295 309 326 339 345 349 354 358 358 357 355 353 352 351 352 353 354 354 354 353 350 347 343 336 326 318 311 304
212 211 210 211 210 208 208 211 211 209 210 213 213 210 211 212 211 217 233 250 274 285 299 319 337 347 359 4 4 2 1 1 0 1 4 6 6 6 4 2 1 1 358 354 352 344 337 330 319
209 208 209 209 209 208 207 210 209 209 210 212 212 207 209 213 215 219 230 246 265 272 276 308 343 356 7 12 11 10 9 8 8 11 15 17 16 15 12 10 9 9 6 4 2 356 353 349 343
204 205 207 210 208 207 206 208 206 208 210 208 206 204 207 211 216 221 230 236 240 229 223 264 0 18 27 24 18 16 15 17 20 21 22 24 23 22 20 18 15 15 15 14 15 12 9 7 5
201 203 206 207 206 205 205 207 206 207 207 206 207 207 208 211 216 222 219 217 211 207 192 159 85 63 51 33 29 28 28 28 29 30 29 30 29 26 24 23 22 23 24 25 26 25 24 22 23
198 201 203 204 205 205 206 208 208 209 207 207 207 207 211 212 213 212 210 207 200 192 173 150 127 100 78 57 49 46 43 38 37 34 35 34 33 31 30 30 30 32 33 32 33 32 34 35 38
197 200 202 205 206 208 209 211 209 211 209 210 210 209 209 212 213 209 206 199 192 184 174 158 135 110 90 75 65 57 50 46 43 41 41 40 40 39 38 38 38 39 39 39 40 41 43 43 47
197 201 203 206 207 209 210 211 212 212 212 212 211 209 211 212 209 205 201 196 192 186 178 165 144 125 107 90 78 68 59 52 48 46 45 43 43 42 41 42 43 43 44 44 45 46 49 50 52
195 198 203 206 208 210 209 211 213 212 211 212 211 209 209 209 208 205 202 196 193 188 182 172 157 141 122 103 90 76 62 56 53 51 50 47 46 46 45 44 45 46 46 48 49 50 51 53 54
192 194 198 202 206 209 208 209 212 212 211 211 210 209 208 208 206 204 201 196 193 190 185 177 171 159 139 116 98 81 66 59 56 54 52 49 48 49 47 46 47 48 48 48 48 49 50 52 52
193 194 197 200 204 205 206 207 209 210 210 210 209 208 208 207 204 201 199 198 196 194 189 183 179 172 155 130 107 87 69 63 58 55 52 50 48 47 46 45 46 46 46 45 44 43 45 47 48
192 194 196 200 202 204 204 205 208 207 208 207 207 207 205 205 203 202 201 201 199 198 193 188 186 181 171 151 125 97 75 68 63 55 51 48 46 44 42 41 41 40 40 40 39 38 40 40 42
192 195 199 200 201 204 205 203 204 203 204 205 208 206 205 207 205 204 203 202 202 199 195 192 191 188 185 174 149 115 88 77 63 52 47 45 43 41 39 36 33 32 33 34 34 35 35 37 38
191 191 191 195 200 203 205 204 202 202 204 205 208 205 205 206 206 206 205 203 202 200 198 197 197 195 194 189 176 153 117 81 58 43 39 40 38 35 33 31 28 26 25 25 26 28 30 31 31
188 186 187 189 192 194 200 203 198 198 200 205 208 205 205 207 209 207 207 206 204 202 200 201 202 201 202 199 195 189 172 107 44 25 24 28 26 24 23 22 21 20 20 20 20 21 22 23 22
188 189 190 186 186 191 195 198 197 199 202 206 206 205 207 208 210 210 210 208 206 204 203 205 206 207 207 205 205 206 206 220 325 351 360 6 8 8 9 10 11 12 12 14 13 12 11 11 10
Height
5888 5889 5891 5892 5894 5894 5893 5894 5894 5894 5894 5894 5894 5894 5894 5895 5896 5898 5896 5895 5895 5895 5894 5894 5893 5893 5892 5892 5891 5891 5890 5889 5888 5887 5886 5885 5884 5884 5883 5882 5881 5880 5880 5879 5879 5878 5878 5877 5877
5886 5888 5890 5891 5892 5893 5893 5893 5893 5893 5893 5893 5893 5893 5893 5894 5894 5895 5894 5894 5894 5894 5893 5893 5893 5892 5892 5891 5891 5890 5889 5888 5887 5886 5885 5884 5883 5882 5882 5881 5880 5879 5878 5878 5877 5877 5876 5876 5876
5885 5886 5889 5890 5890 5891 5892 5891 5891 5891 5892 5892 5893 5893 5893 5893 5894 5894 5894 5893 5893 5893 5892 5892 5892 5892 5891 5891 5890 5889 5888 5887 5886 5885 5884 5883 5882 5881 5880 5879 5879 5878 5877 5876 5876 5875 5875 5874 5874
5883 5885 5887 5889 5889 5889 5890 5890 5890 5891 5891 5891 5892 5892 5892 5893 5893 5893 5893 5893 5892 5892 5892 5892 5891 5891 5890 5890 5889 5888 5887 5886 5885 5884 5883 5882 5881 5880 5879 5878 5877 5876 5875 5875 5874 5873 5873 5872 5872
5880 5883 5885 5886 5887 5888 5888 5889 5889 5890 5890 5890 5891 5891 5892 5892 5892 5892 5892 5892 5892 5891 5891 5891 5891 5890 5890 5889 5888 5887 5886 5885 5884 5882 5881 5880 5879 5878 5877 5877 5875 5874 5874 5873 5872 5872 5871 5871 5870
5878 5881 5883 5884 5885 5886 5887 5887 5888 5889 5889 5890 5890 5891 5891 5891 5891 5891 5891 5891 5891 5890 5890 5890 5890 5890 5889 5889 5888 5887 5885 5884 5883 5881 5880 5879 5878 5877 5876 5875 5874 5873 5872 5871 5870 5869 5869 5868 5868
5876 5878 5880 5881 5882 5884 5885 5886 5887 5888 5888 5889 5890 5890 5890 5891 5891 5890 5890 5890 5890 5890 5889 5889 5889 5889 5888 5888 5887 5886 5884 5883 5882 5880 5879 5878 5877 5875 5874 5873 5872 5871 5870 5869 5868 5867 5867 5866 5866
5872 5876 5877 5878 5880 5882 5883 5884 5885 5886 5887 5888 5889 5889 5890 5890 5890 5890 5890 5890 5889 5889 5889 5889 5888 5888 5888 5887 5886 5885 5883 5882 5880 5879 5878 5876 5875 5874 5872 5871 5870 5869 5867 5866 5866 5865 5864 5864 5864
5869 5873 5874 5876 5877 5880 5881 5882 5884 5885 5886 5887 5888 5888 5889 5889 5889 5889 5889 5889 5889 5889 5888 5888 5888 5887 5887 5886 5885 5883 5882 5881 5879 5878 5877 5875 5874 5872 5871 5869 5868 5867 5865 5864 5863 5863 5862 5861 5861
5866 5869 5871 5873 5875 5877 5879 5881 5882 5883 5885 5886 5886 5887 5887 5888 5888 5888 5888 5888 5888 5888 5888 5888 5887 5887 5886 5885 5884 5883 5881 5880 5878 5877 5875 5874 5872 5870 5869 5867 5866 5864 5863 5862 5861 5860 5859 5859 5858
5861 5864 5867 5870 5872 5874 5877 5879 5880 5882 5883 5884 5885 5886 5886 5887 5887 5887 5888 5888 5888 5888 5888 5887 5887 5886 5885 5884 5883 5882 5880 5879 5877 5875 5874 5872 5871 5869 5867 5865 5864 5862 5861 5860 5859 5858 5857 5856 5856
5858 5860 5863 5866 5869 5872 5874 5877 5879 5880 5882 5883 5884 5885 5885 5885 5886 5886 5887 5887 5887 5887 5887 5887 5886 5885 5884 5884 5882 5881 5879 5878 5876 5874 5873 5871 5869 5867 5865 5863 5861 5860 5859 5857 5856 5855 5854 5854 5853
5854 5857 5860 5864 5867 5870 5872 5875 5877 5878 5880 5881 5882 5883 5884 5884 5885 5886 5886 5887 5887 5887 5886 5886 5885 5884 5884 5883 5882 5880 5879 5877 5875 5873 5872 5870 5868 5866 5863 5861 5860 5858 5856 5855 5854 5853 5852 5851 5850
5850 5854 5857 5860 5864 5867 5870 5872 5875 5876 5878 5879 5881 5882 5883 5883 5884 5885 5886 5886 5886 5886 5886 5885 5885 5884 5883 5882 5881 5880 5878 5876 5875 5873 5871 5868 5866 5864 5862 5860 5858 5856 5854 5853 5851 5850 5849 5848 5848
5846 5850 5854 5857 5861 5864 5868 5870 5872 5874 5876 5877 5879 5880 5881 5882 5883 5884 5885 5885 5885 5885 5885 5885 5884 5884 5883 5882 5881 5879 5878 5876 5874 5872 5870 5867 5865 5863 5861 5859 5857 5855 5852 5851 5849 5848 5847 5846 5845
5843 5847 5851 5854 5857 5861 5867 5868 5870 5872 5874 5875 5877 5879 5880 5881 5882 5883 5884 5884 5885 5885 5885 5884 5884 5883 5883 5882 5881 5879 5878 5876 5874 5872 5869 5867 5865 5862 5860 5858 5856 5854 5851 5850 5848 5846 5845 5844 5843
5839 5843 5847 5851 5854 5858 5863 5865 5867 5869 5872 5874 5875 5877 5879 5880 5881 5882 5883 5884 5884 5884 5884 5884 5884 5883 5883 5882 5881 5879 5878 5876 5874 5872 5869 5867 5865 5862 5860 5858 5855 5853 5851 5849 5847 5845 5844 5842 5841
5836 5840 5844 5848 5852 5856 5859 5862 5865 5867 5870 5872 5874 5875 5877 5879 5880 5881 5882 5883 5884 5884 5884 5884 5883 5883 5883 5882 5881 5879 5878 5876 5874 5872 5870 5867 5865 5862 5860 5858 5855 5853 5851 5848 5846 5844 5842 5841 5840
5833 5837 5841 5845 5849 5853 5856 5860 5863 5865 5868 5870 5872 5874 5876 5877 5879 5880 5881 5882 5883 5883 5884 5884 5883 5883 5883 5882 5881 5880 5878 5877 5875 5872 5870 5868 5865 5863 5861 5858 5855 5853 5851 5848 5846 5844 5842 5841 5840
5830 5834 5838 5842 5846 5850 5854 5857 5860 5863 5866 5868 5870 5872 5874 5876 5878 5879 5881 5882 5883 5883 5884 5884 5883 5883 5883 5882 5881 5880 5879 5877 5875 5873 5871 5869 5866 5864 5861 5859 5856 5854 5851 5849 5847 5845 5843 5841 5840
5827 5832 5836 5840 5844 5848 5852 5855 5858 5861 5864 5866 5869 5871 5873 5875 5877 5878 5880 5881 5882 5883 5883 5884 5884 5883 5883 5882 5882 5881 5879 5878 5876 5874 5872 5870 5868 5865 5863 5860 5858 5855 5852 5850 5848 5846 5844 5843 5842
5826 5830 5834 5838 5842 5845 5850 5853 5856 5859 5862 5864 5867 5869 5871 5873 5875 5877 5878 5880 5881 5882 5883 5883 5884 5884 5883 5883 5882 5881 5880 5879 5877 5875 5874 5871 5869 5867 5864 5862 5859 5857 5854 5852 5850 5848 5846 5845 5843
5824 5828 5833 5836 5840 5844 5847 5851 5855 5856 5860 5863 5865 5867 5869 5871 5874 5875 5877 5879 5881 5882 5882 5883 5884 5884 5884 5883 5883 5882 5881 5880 5878 5877 5875 5873 5871 5869 5866 5864 5862 5859 5857 5855 5852 5850 5848 5847 5845
5823 5827 5831 5834 5838 5842 5845 5849 5852 5855 5858 5860 5863 5865 5867 5870 5872 5874 5876 5878 5879 5881 5882 5883 5883 5884 5884 5884 5883 5883 5882 5881 5879 5878 5876 5875 5873 5871 5868 5866 5864 5862 5860 5857 5855 5853 5851 5849 5848
5822 5826 5830 5833 5836 5839 5842 5846 5850 5852 5855 5858 5860 5863 5865 5868 5870 5872 5875 5876 5878 5880 5881 5882 5883 5884 5884 5884 5883 5883 5882 5881 5881 5879 5878 5876 5874 5872 5870 5868 5866 5864 5862 5860 5858 5856 5854 5852 5850
5821 5825 5829 5833 5835 5838 5840 5844 5849 5850 5853 5856 5859 5861 5864 5866 5868 5871 5873 5875 5877 5879 5880 5881 5882 5883 5883 5883 5883 5883 5883 5882 5881 5880 5879 5877 5876 5874 5872 5870 5868 5866 5864 5862 5860 5858 5856 5854 5852
5820 5823 5827 5831 5833 5836 5839 5843 5846 5849 5851 5854 5857 5859 5862 5865 5867 5869 5872 5874 5876 5877 5879 5880 5881 5882 5882 5883 5883 5883 5883 5882 5881 5881 5880 5878 5877 5875 5873 5872 5870 5868 5866 5864 5862 5860 5858 5856 5854
5820 5822 5826 5829 5832 5835 5838 5841 5845 5847 5850 5853 5855 5858 5860 5863 5865 5868 5870 5872 5874 5875 5877 5878 5880 5881 5882 5882 5882 5882 5882 5882 5881 5881 5880 5879 5877 5876 5874 5873 5871 5869 5867 5866 5864 5862 5860 5858 5856
5820 5823 5825 5828 5831 5834 5837 5843 5843 5846 5848 5851 5853 5856 5858 5861 5863 5866 5868 5870 5872 5873 5875 5877 5878 5879 5880 5881 5881 5882 5882 5881 5881 5881 5880 5879 5878 5876 5875 5873 5872 5870 5868 5866 5864 5863 5861 5859 5857
5819 5822 5825 5828 5830 5833 5836 5842 5841 5844 5846 5848 5851 5854 5856 5859 5861 5863 5866 5868 5870 5871 5873 5875 5877 5878 5879 5880 5880 5881 5881 5881 5880 5880 5879 5879 5878 5876 5875 5873 5872 5870 5868 5867 5865 5863 5861 5859 5857